Regional Weather Roundup
Issued by NWS Jackson, KY

Home | Current Version | Previous Version | Text Only | Print | Product List | Glossary Off
Versions: 1 2 3 4 5 6 7 8 9 10 11 12 13 14 15 16 17 18 19 20 21 22 23 24 25 26 27 28

000
ASUS43 KJKL 281310
RWRJKL

EAST KENTUCKY HOURLY WEATHER ROUNDUP
NATIONAL WEATHER SERVICE JACKSON KY
900 AM EDT SUN AUG 28 2016

NOTE: "FAIR" INDICATES FEW OR NO CLOUDS BELOW 12,000 FEET WITH
NO SIGNIFICANT WEATHER AND/OR OBSTRUCTIONS TO VISIBILITY.

* THESE REPORTS ARE NOT UNDER NWS QUALITY CONTROL AND MAY NOT
  REPORT WEATHER SUCH AS PRECIPITATION AND FOG.

KYZ079-080-083-085-087-088-110-112-115-119-120-281400
...EASTERN KENTUCKY...

CITY           SKY/WX    TMP DP  RH WIND       PRES   REMARKS
JACKSON        SUNNY     77  72  84 CALM      30.23R
LONDON         SUNNY     74  67  78 CALM      30.22R
SOMERSET*      SUNNY     72  70  94 CALM      30.22R
MONTICELLO*    MOSUNNY  N/A N/A N/A MISG      30.22R
WILLIAMSBURG*  SUNNY     73  72  94 SE5       30.22R
MIDDLESBORO*   CLOUDY    68  68 100 CALM      30.24S FOG
HARLAN APT*    CLOUDY    70  68  94 CALM      30.25S
PIKE CO APT*     N/A     74  73  95 S3        30.24S
BIG SANDY APT* PTSUNNY   77  72  86 CALM      30.23R
MOREHEAD APT*  CLOUDY    75  70  83 SE5       30.22R
$$

KYZ035-036-041-042-044-050-067-078-099-281400
...CENTRAL KENTUCKY...

CITY           SKY/WX    TMP DP  RH WIND       PRES   REMARKS
MT STERLING*   SUNNY     77  73  88 CALM      30.22R
FLEMING/MASON* SUNNY     74  71  90 CALM      30.22R
DANVILLE*      PTSUNNY   72  70  94 CALM      30.22R
LEXINGTON      SUNNY     76  72  87 CALM      30.21R
FRANKFORT      SUNNY     76  71  85 CALM      30.19R
LOUISVILLE     MOSUNNY   80  73  79 CALM      30.18R
LEBANON*         N/A     75  72  88 CALM      30.20S
GLASGOW*       SUNNY     74  73  96 CALM      30.18R
BOWLING GREEN  SUNNY     76  72  87 CALM      30.18R
$$

KYZ091>093-OHZ055-061-077-WVZ005-015-034-035-042-281400
...SOUTHERN OHIO/WEST VIRGINIA...

CITY           SKY/WX    TMP DP  RH WIND       PRES   REMARKS
COVINGTON      MOSUNNY   77  72  84 NE7       30.21R
COLUMBUS       PTSUNNY   72  69  90 NE3       30.21R
DAYTON         MOSUNNY   76  69  79 CALM      30.23R
WILMINGTON     SUNNY     76  70  82 N3        30.22R
HUNTINGTON     CLOUDY    75  72  90 E3        30.19R
CHARLESTON     PTSUNNY   76  72  87 CALM      30.22R
PINEVILLE*     MOSUNNY   78  65  63 MISG      30.32S
BECKLEY        CLOUDY    73  66  78 CALM      30.32R
BLUEFIELD      SUNNY     71  65  81 VRB5      30.34R
LOGAN CO APT*    N/A     79  68  69 CALM      30.25R
$$

VAZ002-007-008-TNZ017-027-036-066-071-281400
...SOUTHWEST VIRGINIA/EAST TENNESSEE...

CITY           SKY/WX    TMP DP  RH WIND       PRES   REMARKS
WISE*          CLOUDY    73  61  64 S3        30.33R
JONESVILLE*      N/A     75  72  88 CALM      30.26S
ABINGDON*      PTSUNNY   78  70  75 SE8       30.29R
BRISTOL        MOSUNNY   76  71  85 CALM      30.25R
MORRISTOWN*    SUNNY     77  70  78 E6        30.22R
SEVIERVILLE*   SUNNY     72  68  88 CALM      30.21R
KNOXVILLE      MOSUNNY   75  70  84 CALM      30.20R
OAK RIDGE      SUNNY     76  69  79 E3        30.22R
CROSSVILLE     SUNNY     74  67  78 CALM      30.25R
NASHVILLE      MOSUNNY   76  72  87 CALM      30.17R
$$

...KEY TO REMARKS...
VSB - VISIBILITY IN MILES
WCI - WIND CHILL INDEX
HX  - HEAT INDEX

$$




USA.gov is the U.S. government's official web portal to all federal, state and local government web resources and services.